Stations météo

réclame
Mon MeteoGroup
Pertusato, France (7770): Température de l'air & dewpoint: 22.05.2018 07:00:00 - 28.05.2018 07:00:00 (CEST)Pertusato, France (7770): Vitesse du vent & gusts: 22.05.2018 07:00:00 - 28.05.2018 07:00:00 (CEST)Pertusato, France (7770): Direction du vent: 22.05.2018 07:00:00 - 28.05.2018 07:00:00 (CEST)Pertusato, France (7770): reduced air pressure: 22.05.2018 07:00:00 - 28.05.2018 07:00:00 (CEST)Pertusato, France (7770): visibility: 22.05.2018 07:00:00 - 28.05.2018 07:00:00 (CEST)Pertusato, France (7770): Quantités de précipitations: 22.05.2018 07:00:00 - 28.05.2018 07:00:00 (CEST)
Date & Time tt [°C] td [°C] ff [km/h] ff [knt] fx [km/h] fx [knt] dd ppp [hPa] vv [km] rr [mm]
28.05.2018 07:00:00 18,7 17,4 13 7 19 11 NE 1016,9 - 0,0
28.05.2018 06:00:00 18,8 17,1 14 8 25 14 NE 1016,6 - 0,0
28.05.2018 05:00:00 18,9 17,0 18 10 26 14 NE 1016,3 15 0,0
28.05.2018 04:00:00 19,4 17,5 15 8 27 15 NE 1016,5 - 0,0
28.05.2018 03:00:00 19,3 17,3 20 11 36 20 ENE 1016,7 - 0,0
28.05.2018 02:00:00 19,3 17,3 19 10 44 24 ENE 1016,4 - 0,0
28.05.2018 01:00:00 19,4 17,5 31 17 44 24 ENE 1015,5 - 0,0
28.05.2018 00:00:00 19,3 17,4 30 16 46 25 ENE 1015,6 - 0,0
27.05.2018 23:00:00 19,5 17,6 23 13 47 26 ENE 1015,8 - 0,0
27.05.2018 22:00:00 19,8 18,1 34 18 52 28 ENE 1015,4 - 0,0
27.05.2018 21:00:00 19,5 18,0 30 16 48 26 ENE 1014,7 - 0,0
27.05.2018 20:00:00 20,3 18,2 31 17 49 26 ENE 1014,4 - 0,0
27.05.2018 19:00:00 20,9 18,8 33 18 52 28 ENE 1014,6 - 0,0
27.05.2018 18:00:00 21,2 19,3 32 17 53 29 ENE 1015,1 - 0,0
27.05.2018 17:00:00 21,3 18,9 35 19 55 30 ENE 1015,4 15 0,0
27.05.2018 16:00:00 22,8 18,8 39 21 61 33 ENE 1014,8 - 0,0
27.05.2018 15:00:00 22,1 19,1 37 20 55 30 ENE 1015,5 - 0,0
27.05.2018 14:00:00 21,3 18,3 34 18 50 27 ENE 1016,5 15 0,0
27.05.2018 13:00:00 23,2 18,3 34 19 49 27 ENE 1016,4 - 0,0
27.05.2018 12:00:00 22,2 17,1 30 16 46 25 ENE 1017,5 - 0,0
27.05.2018 11:00:00 22,2 16,9 32 17 46 25 ENE 1017,6 18 0,0
27.05.2018 10:00:00 21,8 17,2 30 16 49 26 ENE 1016,9 - 0,0
27.05.2018 09:00:00 21,9 17,5 31 17 44 24 ENE 1017,0 - 0,0
27.05.2018 08:00:00 21,3 17,9 29 15 40 22 ENE 1017,1 18 0,0
27.05.2018 07:00:00 19,3 17,4 24 13 37 20 ENE 1017,0 - 0,0
27.05.2018 06:00:00 19,0 17,1 24 13 37 20 ENE 1016,7 - 0,0
27.05.2018 05:00:00 18,8 17,1 27 15 40 22 ENE 1016,2 18 0,0
27.05.2018 04:00:00 18,8 16,9 27 14 41 22 ENE 1016,4 - 0,0
27.05.2018 03:00:00 18,9 17,2 24 13 39 21 E 1017,1 - 0,0
27.05.2018 02:00:00 18,7 16,5 22 12 32 17 E 1017,6 - 0,0
27.05.2018 01:00:00 19,1 16,3 22 12 36 20 E 1017,4 - 0,0
27.05.2018 00:00:00 19,5 16,2 24 13 37 20 E 1017,5 - 0,0
26.05.2018 23:00:00 19,3 16,1 22 12 30 16 ENE 1018,0 - 0,0
26.05.2018 22:00:00 19,5 15,8 18 10 28 15 E 1018,0 - 0,0
26.05.2018 21:00:00 19,4 14,0 16 9 29 15 E 1017,9 - 0,0
26.05.2018 20:00:00 20,5 14,8 19 11 31 17 ENE 1017,9 20 0,0
26.05.2018 19:00:00 21,9 13,0 18 10 36 19 E 1017,8 - 0,0
26.05.2018 18:00:00 23,7 11,1 24 13 35 19 ENE 1017,4 - 0,0
26.05.2018 17:00:00 24,2 10,8 25 13 38 20 ENE 1018,0 - 0,0
26.05.2018 16:00:00 24,5 11,4 27 15 38 20 E 1017,7 - 0,0
26.05.2018 15:00:00 25,0 12,2 27 15 38 21 E 1018,0 - 0,0
26.05.2018 14:00:00 25,5 12,0 23 12 34 18 E 1018,4 20 0,0
26.05.2018 13:00:00 25,3 11,5 23 13 35 19 E 1018,1 - 0,0
26.05.2018 12:00:00 25,2 11,4 21 11 32 17 E 1018,6 - 0,0
26.05.2018 11:00:00 24,8 10,6 20 11 27 15 ENE 1018,5 20 0,0
26.05.2018 10:00:00 24,0 16,0 16 8 29 16 ENE 1018,3 - 0,0
26.05.2018 09:00:00 21,6 18,0 21 12 31 17 NE 1018,2 - 0,0
26.05.2018 08:00:00 19,9 18,0 22 12 31 17 NE 1018,0 20 0,0
26.05.2018 07:00:00 18,6 17,8 23 13 32 17 ENE 1017,6 - 0,0
26.05.2018 06:00:00 17,9 17,1 22 12 30 16 ENE 1016,8 - 0,0
26.05.2018 05:00:00 17,9 17,1 22 12 29 16 ENE 1016,6 15 0,0
26.05.2018 04:00:00 18,1 16,9 22 12 29 16 ENE 1016,8 - 0,0
26.05.2018 03:00:00 18,0 15,8 21 12 29 16 NE 1016,8 - 0,0
26.05.2018 02:00:00 17,7 14,8 21 12 28 15 ENE 1016,8 - 0,0
26.05.2018 01:00:00 17,9 14,0 17 9 24 13 ENE 1016,8 - 0,0
26.05.2018 00:00:00 18,3 14,2 17 9 22 12 NE 1016,7 - 0,0
25.05.2018 23:00:00 18,7 12,7 14 8 18 10 NE 1016,8 - 0,0
25.05.2018 22:00:00 18,2 14,7 11 6 19 11 NE 1016,7 - 0,0
25.05.2018 21:00:00 18,5 15,6 14 8 20 11 NE 1016,1 - 0,0
25.05.2018 20:00:00 20,7 15,3 13 7 18 10 ENE 1015,8 25 0,0
25.05.2018 19:00:00 23,1 14,1 13 7 18 10 ENE 1015,4 - 0,0
25.05.2018 18:00:00 24,1 14,8 11 6 18 10 ENE 1015,4 - 0,0
25.05.2018 17:00:00 24,9 14,7 8 4 19 10 E 1015,6 25 0,0
25.05.2018 16:00:00 26,2 15,6 10 6 19 10 E 1015,6 - 0,0
25.05.2018 15:00:00 25,8 14,0 13 7 22 12 E 1015,8 - 0,0
25.05.2018 14:00:00 26,3 14,1 11 6 19 11 E 1015,7 18 0,0
25.05.2018 13:00:00 25,4 16,8 12 7 21 12 E 1016,1 - 0,0
25.05.2018 12:00:00 24,1 17,3 16 8 24 13 E 1016,4 - 0,0
25.05.2018 11:00:00 23,3 17,1 13 7 24 13 ENE 1016,6 - 0,0
25.05.2018 10:00:00 21,8 17,6 19 10 28 15 ENE 1016,6 - 0,0
25.05.2018 09:00:00 20,7 17,9 18 10 26 14 ENE 1016,6 - 0,0
25.05.2018 08:00:00 18,9 17,4 17 9 26 14 ENE 1016,6 15 0,0
25.05.2018 07:00:00 16,8 16,2 10 6 17 9 ENE 1016,7 - 0,0
25.05.2018 06:00:00 16,2 15,4 0 0 4 2 N 1016,5 - 0,0
25.05.2018 05:00:00 16,1 15,3 4 2 5 3 WNW 1016,5 15 -
25.05.2018 04:00:00 16,5 15,7 4 2 8 4 WSW 1016,9 - 0,0
25.05.2018 03:00:00 16,9 16,3 5 3 9 5 WSW 1017,1 - 0,0
25.05.2018 02:00:00 17,2 16,4 4 2 8 5 SSW 1017,3 - 0,0
25.05.2018 01:00:00 17,2 16,4 5 3 11 6 SSW 1017,5 - 0,0
25.05.2018 00:00:00 17,4 16,6 5 3 11 6 SSW 1017,4 - 0,0
24.05.2018 23:00:00 17,4 16,6 10 5 16 9 WSW 1017,4 - 0,0
24.05.2018 22:00:00 17,6 16,8 11 6 17 9 WSW 1017,3 10 0,0
24.05.2018 21:00:00 17,7 16,7 10 5 23 12 W 1016,7 - 0,0
24.05.2018 20:00:00 18,3 16,6 16 9 24 13 W 1016,6 - 0,0
24.05.2018 19:00:00 19,0 16,8 15 8 32 17 W 1016,6 - 0,0
24.05.2018 18:00:00 19,4 16,6 24 13 39 21 W 1016,7 - 0,0
24.05.2018 17:00:00 19,3 16,5 24 13 38 20 W 1016,9 15 0,0
24.05.2018 16:00:00 19,3 16,3 21 12 37 20 W 1017,3 - 0,0
24.05.2018 15:00:00 19,5 16,3 22 12 33 18 W 1018,0 - 0,0
24.05.2018 14:00:00 19,7 16,2 16 9 26 14 W 1018,5 - 0,0
24.05.2018 13:00:00 19,7 16,3 14 8 25 13 W 1018,8 - 0,0
24.05.2018 12:00:00 19,8 16,6 18 10 24 13 W 1019,0 - 0,0
24.05.2018 11:00:00 18,8 15,8 13 7 23 12 W 1018,8 16 0,0
24.05.2018 10:00:00 18,8 15,8 14 8 21 12 W 1018,6 - 0,0
24.05.2018 09:00:00 18,3 15,4 18 10 27 15 W 1018,5 - 0,0
24.05.2018 08:00:00 17,5 15,7 23 12 41 22 W 1018,4 - 0,0
24.05.2018 07:00:00 17,0 15,3 15 8 36 19 W 1017,6 - 0,0
24.05.2018 06:00:00 16,5 15,5 27 15 42 23 W 1017,5 - 0,0
24.05.2018 05:00:00 16,8 15,7 31 17 46 25 W 1017,6 16 0,0
24.05.2018 04:00:00 16,8 15,7 32 17 46 25 W 1017,7 - 0,0
24.05.2018 03:00:00 16,7 15,7 28 15 36 19 W 1018,4 - 0,0
24.05.2018 02:00:00 16,5 15,5 26 14 36 19 W 1018,5 - 0,0
24.05.2018 01:00:00 16,8 15,7 23 13 35 19 W 1018,7 - 0,0
24.05.2018 00:00:00 16,7 15,4 19 11 36 20 W 1019,2 - 0,0
23.05.2018 23:00:00 17,1 15,8 27 15 43 23 W 1018,8 - 0,0
23.05.2018 22:00:00 17,2 15,7 32 17 47 25 W 1018,2 - 0,0
23.05.2018 21:00:00 17,4 15,4 22 12 54 29 W 1017,2 - 0,0
23.05.2018 20:00:00 17,8 15,2 34 19 55 30 W 1016,5 - 0,0
23.05.2018 19:00:00 18,1 15,5 39 21 59 32 W 1016,2 - 0,0
23.05.2018 18:00:00 18,4 15,8 39 21 54 29 W 1016,2 - 0,0
23.05.2018 17:00:00 18,6 16,2 29 16 50 27 W 1016,7 - 0,0
23.05.2018 16:00:00 19,0 16,2 21 12 44 24 W 1016,9 - 0,0
23.05.2018 15:00:00 19,0 15,7 23 13 49 26 W 1017,0 - 0,0
23.05.2018 14:00:00 19,1 16,0 27 15 51 28 W 1017,2 18 0,0
23.05.2018 13:00:00 19,5 16,2 32 17 46 25 W 1016,9 - 0,0
23.05.2018 12:00:00 19,5 15,8 21 11 35 19 W 1017,1 - 0,0
23.05.2018 11:00:00 18,7 15,8 15 8 41 22 WNW 1016,6 - 0,0
23.05.2018 10:00:00 18,6 15,8 26 14 41 22 W 1016,1 - 0,0
23.05.2018 09:00:00 18,7 15,4 25 13 38 21 W 1016,2 - 0,0
23.05.2018 08:00:00 17,8 15,8 23 13 36 19 W 1015,7 22 0,0
23.05.2018 07:00:00 17,1 15,3 21 12 31 17 W 1015,3 - 0,0
23.05.2018 06:00:00 16,3 15,0 15 8 31 17 WNW 1014,9 - 0,0
23.05.2018 05:00:00 16,6 15,0 19 10 35 19 WNW 1014,6 18 0,0
23.05.2018 04:00:00 16,6 15,1 24 13 34 18 W 1014,6 - 0,0
23.05.2018 03:00:00 16,7 15,2 22 12 38 21 WNW 1014,6 - 0,0
23.05.2018 02:00:00 16,8 15,1 29 15 36 19 W 1014,7 - 0,0
23.05.2018 01:00:00 16,8 15,3 28 15 36 20 W 1014,7 - 0,0
23.05.2018 00:00:00 17,1 14,9 28 15 46 25 W 1014,6 - 0,0
22.05.2018 23:00:00 17,1 14,9 31 17 45 25 W 1014,3 - 0,0
22.05.2018 22:00:00 17,0 14,8 22 12 40 22 W 1013,9 - 0,0
22.05.2018 21:00:00 16,9 14,9 23 12 42 23 W 1013,4 - 0,0
22.05.2018 20:00:00 17,1 14,4 17 9 35 19 W 1013,3 25 0,0
22.05.2018 19:00:00 17,4 14,5 14 8 35 19 WNW 1013,2 - 0,0
22.05.2018 18:00:00 18,2 14,9 24 13 36 19 W 1012,9 - 0,0
22.05.2018 17:00:00 18,8 15,1 24 13 31 17 W 1012,9 25 0,0
22.05.2018 16:00:00 18,4 14,7 9 5 19 11 W 1013,1 - 0,0
22.05.2018 15:00:00 18,9 14,8 7 4 15 8 WSW 1013,3 - 0,0
22.05.2018 14:00:00 17,8 13,7 7 4 31 17 SE 1013,3 15 0,0
22.05.2018 13:00:00 17,9 14,2 7 4 29 16 W 1013,3 - 0,0
22.05.2018 12:00:00 17,9 13,6 10 5 20 11 W 1013,0 - 0,0
22.05.2018 11:00:00 18,8 14,1 6 4 19 10 W 1012,7 - 0,0
22.05.2018 10:00:00 18,4 13,7 8 5 19 11 WNW 1012,4 - 0,0
22.05.2018 09:00:00 17,9 13,6 8 4 19 10 W 1012,2 - 0,0
22.05.2018 08:00:00 16,7 14,0 10 5 24 13 W 1012,0 20 0,0
22.05.2018 07:00:00 16,4 14,1 13 7 24 13 W 1011,6 - 0,0

tt = Température de l'air
td = dewpoint
ff = Vitesse du vent
fx = gusts
dd = Direction du vent
ppp = reduced air pressure
vv = visibility
rr = Quantités de précipitations

stations d'obs. à proximité